Location: Axtheid
(49.6213°N, 11.8205°E)
Time: 12:50:29
(UTC+00:00)

Okean-O - Pass Details

Date: 24 January 2021
Orbit: 638 x 641 km, 98.2° (Epoch: 26 February)

Event Time Altitude Azimuth Distance (km) Brightness Sun altitude
Rises 16:28:27 0° 123° (ESE) 2,941 5.7 -5.7°
Reaches altitude 10° 16:31:08 10° 106° (ESE) 2,036 4.8 -6.1°
Maximum altitude 16:34:19 20° 60° (ENE) 1,499 3.9 -6.6°
Drops below altitude 10° 16:37:30 10° 14° (NNE) 2,046 4.9 -7.0°
Sets 16:40:12 0° 358° (N) 2,961 5.9 -7.5°
